525  
ASUS46 KSEW 230010  
RWRWA  
 
WASHINGTON REGIONAL WEATHER ROUNDUP  
NATIONAL WEATHER SERVICE SEATTLE WA  
500 PM PDT SAT JUL 22 2017  
 
NOTE:"FAIR" INDICATES FEW OR NO CLOUDS BELOW 12,000 FEET WITH NO  
SIGNIFICANT WEATHER AND/OR S TO VISIBILITY
.  
 
WAZ507-509-555>559-230100-  
SEATTLE, TACOMA, EVERETT, AND VICINITY  
 
CITY SKY/WX TMP DP RH WIND PRES REMARKS
 
EVERETT SUNNY 73 56 54 NW10G17 30.14F  
6HR MIN TEMP: 71; 6HR MAX TEMP: 80;  
 
BOEING FIELD SUNNY 85 62 46 NW9 30.08F  
6HR MIN TEMP: 74; 6HR MAX TEMP: 86;  
 
RENTON SUNNY 86 63 45 N5 30.08F  
6HR MIN TEMP: 74; 6HR MAX TEMP: 86;  
 
SEATAC AIRPORT MOSUNNY 84 61 45 VRB3 30.11F  
6HR MIN TEMP: 73; 6HR MAX TEMP: 85;  
 
JBLM-MCCHORD NOT AVBL  
PUYALLUP FAIR 88 63 42 W5 30.11F  
BREMERTON MOSUNNY 81 62 52 NE9 30.10F  
6HR MIN TEMP: 72; 6HR MAX TEMP: 85;  
 
JBLM-FT LEWIS NOT AVBL  
TACOMA NARROWS MOSUNNY 82 62 50 W5 30.10F  
6HR MIN TEMP: 71; 6HR MAX TEMP: 84;  
 

 
 
WAZ001-503-506-510-514-515-230100-  
NORTH INTERIOR  
 
CITY SKY/WX TMP DP RH WIND PRES REMARKS
 
BELLINGHAM CLOUDY 74 62 66 N8 30.14F  
6HR MIN TEMP: 66; 6HR MAX TEMP: 74;  
 
FRIDAY HARBOR CLOUDY 70 57 63 N7 30.16F  
6HR MIN TEMP: 67; 6HR MAX TEMP: 77;  
 
EASTSOUND CLOUDY 66 59 77 CALM 30.15F  
PORT ANGELES CLOUDY 66 59 78 NW8 30.17F  
6HR MIN TEMP: 62; 6HR MAX TEMP: 69;  
 
EDIZ HOOK CLOUDY 62 56 80 W8 30.16F  
6HR MIN TEMP: 57; 6HR MAX TEMP: 65;  
 
PORT TOWNSEND PTSUNNY 70 57 64 NW15 30.15F  
NAS WHIDBEY PTSUNNY 64 52 64 W10 30.18F  
6HR MIN TEMP: 63; 6HR MAX TEMP: 73;  
 
ARLINGTON NOT AVBL  
BURLINGTON PTSUNNY 75 61 60 NW13 30.13F  

 
 
WAZ020-022-039-040-504-511-512-230100-  
SOUTHWEST INTERIOR  
 
CITY SKY/WX TMP DP RH WIND PRES REMARKS
 
SHELTON SUNNY 83 63 50 SW13G21 30.08F  
6HR MIN TEMP: 75; 6HR MAX TEMP: 84;  
 
OLYMPIA SUNNY 84 64 50 VRB6 30.09F  
6HR MIN TEMP: 72; 6HR MAX TEMP: 86;  
 
CHEHALIS FAIR 86 66 51 NW9 30.10S  
KELSO SUNNY 87 66 49 W9G18 30.07F  
6HR MIN TEMP: 74; 6HR MAX TEMP: 87;  
 
VANCOUVER SUNNY 90 63 40 N10G18 30.03F HX 91  
6HR MIN TEMP: 76; 6HR MAX TEMP: 91;  
 
SCAPPOOSE, OR SUNNY 89 60 37 N14 30.03F  
6HR MIN TEMP: 76; 6HR MAX TEMP: 90;  
 
PORTLAND, OR MOSUNNY 90 62 39 NW8G17 30.03F HX 90  
6HR MIN TEMP: 75; 6HR MAX TEMP: 90;  
 

 
 
WAZ021-516-517-230100-  
WASHINGTON COAST  
 
CITY SKY/WX TMP DP RH WIND PRES REMARKS
 
FORKS PTSUNNY 66 62 87 W8 30.17F  
6HR MIN TEMP: 62; 6HR MAX TEMP: 67; 6HR PCP: 0.06;  
 
HOQUIAM SUNNY 71 64 78 SW13 30.15F  
6HR MIN TEMP: 66; 6HR MAX TEMP: 71;  
 
ASTORIA, OR SUNNY 73 62 68 NW15 30.13F  
6HR MIN TEMP: 70; 6HR MAX TEMP: 76;  
 

 
 
WAZ019-023-024-040-567>569-230100-  
CASCADE MOUNTAINS AND COLUMBIA GORGE  
 
CITY SKY/WX TMP DP RH WIND PRES REMARKS
 
STAMPEDE PASS MOSUNNY 73 55 53 VRB7 30.24F  
6HR MIN TEMP: 64; 6HR MAX TEMP: 76;  
 
TROUTDALE, OR SUNNY 91 60 35 NW9G16 30.01F HX 90  
6HR MIN TEMP: 75; 6HR MAX TEMP: 92;  
 
HOOD RIVER, OR CLEAR 91 55 29 NW5 29.99F  
THE DALLES, OR SUNNY 98 55 23 NW9 29.95F HX 96  
6HR MIN TEMP: 84; 6HR MAX TEMP: 98;  
 

 
 
WAZ026-027-041>044-520-521-230100-  
EAST SLOPES  
 
CITY SKY/WX TMP DP RH WIND PRES REMARKS
 
OMAK SUNNY 93 49 22 S9 29.99F HX 90  
6HR MIN TEMP: 79; 6HR MAX TEMP: 95;  
 
WENATCHEE SUNNY 91 54 28 E7 30.00F  
6HR MIN TEMP: 80; 6HR MAX TEMP: 92;  
 
ELLENSBURG SUNNY 93 57 29 W10 30.05F HX 91  
6HR MIN TEMP: 82; 6HR MAX TEMP: 94;  
 
YAKIMA SUNNY 95 52 23 VRB5 30.01F HX 92  
6HR MIN TEMP: 84; 6HR MAX TEMP: 96;  
 
SUNNYSIDE ARPT N/A 89 54 31 CALM 30.00F  
6HR MIN TEMP: 76; 6HR MAX TEMP: 89;  
 
YAKIMA TC NOT AVBL  

 
 
WAZ028-034-035-230100-  
COLUMBIA BASIN  
 
CITY SKY/WX TMP DP RH WIND PRES REMARKS
 
EPHRATA SUNNY 92 50 23 S8 30.01F  
6HR MIN TEMP: 82; 6HR MAX TEMP: 93;  
 
MOSES LAKE SUNNY 92 51 24 S9 30.02F  
6HR MIN TEMP: 82; 6HR MAX TEMP: 93;  
 
PASCO SUNNY 96 46 18 NE7 29.98F HX 92  
6HR MIN TEMP: 83; 6HR MAX TEMP: 97;  
 
RICHLAND ARPT CLEAR 95 48 19 E6 29.98F HX 92  
6HR MIN TEMP: 84; 6HR MAX TEMP: 96;  
 
HERMISTON, OR SUNNY 95 41 15 E5 29.99F HX 91  
6HR MIN TEMP: 82; 6HR MAX TEMP: 95;  
 

 
 
WAZ036>038-230100-  
NORTHEAST WASHINGTON  
 
CITY SKY/WX TMP DP RH WIND PRES REMARKS
 
SPOKANE GEIGER MOSUNNY 88 45 22 W9G21 30.09F  
6HR MIN TEMP: 79; 6HR MAX TEMP: 88;  
 
SPOKANE FELTS SUNNY 89 46 22 VRB3 30.07F  
6HR MIN TEMP: 81; 6HR MAX TEMP: 91;  
 
FAIRCHILD AFB NOT AVBL  
COEURDALENE,ID SUNNY 87 47 24 SW5 30.10F  
6HR MIN TEMP: 77; 6HR MAX TEMP: 88;  
 
DEER PARK SUNNY 88 44 21 SW10 30.08F  
6HR MIN TEMP: 77; 6HR MAX TEMP: 89;  
 

 
 
WAZ029>033-230100-  
SOUTHEAST WASHINGTON  
 
CITY SKY/WX TMP DP RH WIND PRES REMARKS
 
PULLMAN SUNNY 85 44 23 CALM 30.13F  
6HR MIN TEMP: 77; 6HR MAX TEMP: 87;  
 
LEWISTON, ID SUNNY 92 44 19 VRB5 30.03F  
6HR MIN TEMP: 80; 6HR MAX TEMP: 93;  
 
WALLA WALLA SUNNY 94 44 17 W8 30.01F HX 90  
6HR MIN TEMP: 81; 6HR MAX TEMP: 94;  
 
PENDLETON, OR SUNNY 93 40 15 VRB5 30.03F  
6HR MIN TEMP: 81; 6HR MAX TEMP: 94;  
 

 
 
 
CLICK HERE TO GO TO PREVIOUS BULLETINS.

The Nexlab WA Page Main Text Page